Regional Weather Roundup
Issued by NWS

Home | Current Version | Previous Version | Text Only | Print | Product List | Glossary On
Versions: 1 2 3 4 5 6 7 8 9 10 11 12 13 14 15 16 17 18 19 20 21 22 23 24 25 26 27 28 29 30 31 32 33 34 35 36 37 38 39 40 41 42 43 44 45 46 47 48 49
000
ASUS45 KREV 041810
RWRNV
NEVADA REGIONAL WEATHER ROUNDUP
NATIONAL WEATHER SERVICE RENO NV
1100 AM PDT MON MAY 04 2015

NOTE: "FAIR" INDICATES FEW OR NO CLOUDS BELOW 12,000 FEET WITH NO
SIGNIFICANT WEATHER AND/OR OBSTRUCTIONS TO VISIBILITY.

NVZ001-003-004-041900-
WESTERN NEVADA

CITY           SKY/WX    TMP DP  RH WIND       PRES   REMARKS
RENO           PTSUNNY   69  24  18 VRB3      29.96F
6HR MIN TEMP:  49; 6HR MAX TEMP:  70;

CARSON CITY    FAIR      66  25  20 SE3       29.97F
MINDEN         FAIR      66  32  28 CALM      29.98
SLIDE MTN        N/A     48  30  49 SE5         N/A
PYRAMID LAKE     N/A     64 N/A N/A N6          N/A
FALLON         PTSUNNY   71  27  19 VRB3      29.92S
6HR MIN TEMP:  49; 6HR MAX TEMP:  74;

LOVELOCK       SUNNY     72  33  24 N5        29.91F
6HR MIN TEMP:  47; 6HR MAX TEMP:  73;

HAWTHORNE      SUNNY     70  32  24 NW9       29.94F
$$

NVZ002-CAZ072-073-041900-
NORTHERN AND CENTRAL SIERRA

CITY           SKY/WX    TMP DP  RH WIND       PRES   REMARKS
S. LAKE TAHOE  SUNNY     62  30  29 NE8       30.03S
6HR MIN TEMP:  35; 6HR MAX TEMP:  62;

TRUCKEE        MOSUNNY   61  27  27 CALM      30.03F
SQUAW VLY 8000   N/A     52  28  40 SW5         N/A
SUSANVILLE     SUNNY     68  28  22 N3        29.96F
BLUE CANYON    SUNNY     61  29  29 SW7       30.03S
MAMMOTH LAKES  FAIR      63  25  23 E10G20    30.05S
BRIDGEPORT     FAIR      65  27  23 NE7       29.99F
$$

NVZ030-031-036-041900-
NORTHERN NEVADA

CITY           SKY/WX    TMP DP  RH WIND       PRES   REMARKS
ELKO           SUNNY     69  36  29 SE5       29.95F
6HR MIN TEMP:  38; 6HR MAX TEMP:  69;

WINNEMUCCA     NOT AVBL
WENDOVER       SUNNY     72  37  28 E10       29.93F
$$

NVZ035-037-041900-
CENTRAL NEVADA

CITY           SKY/WX    TMP DP  RH WIND       PRES   REMARKS
ELY            MOSUNNY   63  31  30 E8        29.99F
6HR MIN TEMP:  43; 6HR MAX TEMP:  64;

EUREKA           N/A     66  31  27 VRB5      29.98S
6HR MIN TEMP:  40; 6HR MAX TEMP:  66;

$$

NVZ013-014-041900-
SOUTH CENTRAL NEVADA

CITY           SKY/WX    TMP DP  RH WIND       PRES   REMARKS
TONOPAH        NOT AVBL
$$

NVZ017-020-022-041900-
SOUTHERN NEVADA

CITY           SKY/WX    TMP DP  RH WIND       PRES   REMARKS
LAS VEGAS      PTSUNNY   79  37  22 VRB7      29.83S
6HR MIN TEMP:  69; 6HR MAX TEMP:  81;

N. LAS VEGAS   PTSUNNY   78  40  25 SE14      29.87R
6HR MIN TEMP:  66; 6HR MAX TEMP:  80;

NELLIS AFB     PTSUNNY   77  47  34 E15       29.86R
6HR MIN TEMP:  66; 6HR MAX TEMP:  79;

HENDERSON      PTSUNNY   81  44  27 SE16G22   29.89F
6HR MIN TEMP:  66; 6HR MAX TEMP:  81;

MERCURY        PTSUNNY   79  24  13 E8        29.88S
6HR MIN TEMP:  53; 6HR MAX TEMP:  80;

$$



USA.gov is the U.S. government's official web portal to all federal, state and local government web resources and services.